Morristown, NJ

11:02 AM EDT on May 25, 2017 (GMT -0400)
Morristown Municipal

Weather History for KMMU - October, 2011

Change the Weather History Date:

Saturday, October 22, 2011

  Actual Average Record
Temperature  
Mean Temperature 48 °F -  
Max Temperature 57 °F 63 °F 83 °F (1949)
Min Temperature 39 °F 36 °F 16 °F (1940)
Degree Days  
Heating Degree Days 17    
Moisture  
Dew Point 41 °F    
Average Humidity 83    
Maximum Humidity 100    
Minimum Humidity 54    
Precipitation  
Precipitation 0.00 in - - ()
Sea Level Pressure  
Sea Level Pressure 30.06 in    
Wind  
Wind Speed 3 mph (WSW)    
Max Wind Speed 14 mph    
Max Gust Speed 18 mph    
Visibility 10 miles    
Events      
Averages and records for this station are not official NWS values.
T = Trace of Precipitation, MM = Missing Value Source: NWS Daily Summary

Daily Weather History Graph

Daily Weather History Graph

Search for Another Location

Airport or City:

Trip Planner

Search our weather history database for the weather conditions in past years. The results will help you decide how hot, cold, wet, or windy it might be!

Date:

Astronomy

Oct. 22, 2011 Rise Set
Actual Time 7:16 AM EDT 6:07 PM EDT
Civil Twilight 6:48 AM EDT 6:35 PM EDT
Nautical Twilight 6:16 AM EDT 7:07 PM EDT
Astronomical Twilight 5:44 AM EDT 7:38 PM EDT
Moon 2:09 AM EDT (10/22) 3:25 PM EDT (10/22)
Length of Visible Light 11h 46m
Length of Day
10h 51m
Waning Crescent, 24% of the Moon is Illuminated
Oct 22
Waning Crescent
Oct 26
New
Nov 2
First Quarter
Nov 10
Full
Nov 18
Last Quarter

Hourly Weather History & Observations

Time (EDT) Temp. Windchill Dew Point Humidity Pressure Visibility Wind Dir Wind Speed Gust Speed Precip Events Conditions
12:15 AM 48.2 °F - 42.8 °F 82% 30.02 in 10.0 mi SSW 3.5 mph - N/A   Unknown
12:35 AM 48.2 °F - 42.8 °F 82% 30.03 in 10.0 mi Calm Calm - N/A   Unknown
12:55 AM 48.2 °F - 42.8 °F 82% 30.03 in 10.0 mi SW 3.5 mph - N/A   Unknown
1:15 AM 48.2 °F - 42.8 °F 82% 30.03 in 10.0 mi SSW 3.5 mph - N/A   Unknown
1:35 AM 46.4 °F 44.3 °F 42.8 °F 87% 30.03 in 10.0 mi SW 4.6 mph - N/A   Unknown
1:55 AM 44.6 °F 43.1 °F 42.8 °F 93% 30.03 in 10.0 mi SW 3.5 mph - N/A   Unknown
2:15 AM 44.6 °F - 42.8 °F 93% 30.03 in 10.0 mi Calm Calm - N/A   Unknown
2:35 AM 44.6 °F 43.1 °F 42.8 °F 93% 30.04 in 10.0 mi SSW 3.5 mph - N/A   Unknown
2:55 AM 44.6 °F - 41.0 °F 87% 30.03 in 10.0 mi Calm Calm - N/A   Unknown
3:15 AM 42.8 °F - 41.0 °F 93% 30.03 in 10.0 mi Calm Calm - N/A   Unknown
3:35 AM 42.8 °F 41.1 °F 41.0 °F 93% 30.03 in 10.0 mi South 3.5 mph - N/A   Unknown
3:55 AM 42.8 °F 41.1 °F 41.0 °F 93% 30.04 in 10.0 mi South 3.5 mph - N/A   Unknown
4:15 AM 42.8 °F - 41.0 °F 93% 30.03 in 10.0 mi Calm Calm - N/A   Unknown
4:35 AM 42.8 °F 41.1 °F 41.0 °F 93% 30.04 in 10.0 mi South 3.5 mph - N/A   Unknown
4:55 AM 41.0 °F - 41.0 °F 100% 30.05 in 10.0 mi Calm Calm - N/A   Unknown
5:15 AM 41.0 °F - 39.2 °F 93% 30.05 in 10.0 mi Calm Calm - N/A   Unknown
5:35 AM 41.0 °F - 39.2 °F 93% 30.05 in 10.0 mi Calm Calm - N/A   Unknown
5:55 AM 41.0 °F - 39.2 °F 93% 30.05 in 10.0 mi Calm Calm - N/A   Unknown
6:15 AM 39.2 °F - 39.2 °F 100% 30.05 in 10.0 mi Calm Calm - N/A   Unknown
6:35 AM 39.2 °F - 39.2 °F 100% 30.05 in 10.0 mi Calm Calm - N/A   Unknown
6:45 AM 41.0 °F - 39.2 °F 93% 30.06 in 10.0 mi Calm Calm - N/A   Clear
7:45 AM 41.0 °F - 39.2 °F 93% 30.07 in 10.0 mi Calm Calm - N/A   Clear
8:45 AM 46.4 °F - 42.8 °F 87% 30.08 in 10.0 mi Calm Calm - N/A   Clear
9:45 AM 53.6 °F - 42.8 °F 67% 30.08 in 10.0 mi NNW 6.9 mph - N/A   Clear
10:45 AM 55.4 °F - 41.0 °F 58% 30.09 in 10.0 mi NW 8.1 mph - N/A   Scattered Clouds
11:45 AM 57.2 °F - 42.8 °F 59% 30.08 in 10.0 mi WNW 13.8 mph 17.3 mph N/A   Scattered Clouds
12:45 PM 57.2 °F - 41.0 °F 55% 30.07 in 10.0 mi WNW 11.5 mph 18.4 mph N/A   Mostly Cloudy
1:45 PM 57.2 °F - 41.0 °F 55% 30.06 in 10.0 mi WNW 6.9 mph 17.3 mph N/A   Mostly Cloudy
2:45 PM 57.2 °F - 41.0 °F 55% 30.05 in 10.0 mi WNW 8.1 mph - N/A   Mostly Cloudy
3:45 PM 55.4 °F - 39.2 °F 54% 30.06 in 10.0 mi NNW 6.9 mph - N/A   Mostly Cloudy
4:45 PM 55.4 °F - 39.2 °F 54% 30.06 in 10.0 mi NW 9.2 mph - N/A   Mostly Cloudy
5:45 PM 51.8 °F - 39.2 °F 62% 30.07 in 7.0 mi West 12.7 mph - N/A   Mostly Cloudy
6:45 PM 50.0 °F - 39.2 °F 66% 30.08 in 10.0 mi Calm Calm - N/A   Scattered Clouds
7:45 PM 46.4 °F - 41.0 °F 81% 30.09 in 10.0 mi Calm Calm - N/A   Partly Cloudy
8:45 PM 42.8 °F - 41.0 °F 93% 30.11 in 7.0 mi Calm Calm - N/A   Scattered Clouds
9:45 PM 44.6 °F - 42.8 °F 93% 30.11 in 7.0 mi Calm Calm - N/A   Mostly Cloudy
10:55 PM 44.6 °F - 44.6 °F 100% 30.11 in 10.0 mi Calm Calm - N/A   Unknown
11:15 PM 44.6 °F - 44.6 °F 100% 30.11 in 10.0 mi Calm Calm - N/A   Unknown
11:35 PM 46.4 °F - 44.6 °F 93% 30.11 in 10.0 mi Calm Calm - N/A   Unknown
11:55 PM 46.4 °F - 44.6 °F 93% 30.11 in 10.0 mi Calm Calm - N/A   Unknown